Volver al catálogo

STARLINK-32376

ActivoComunicacionesVLEO
NORAD 61707·PAYLOAD·🇺🇸 United States

Lanzado Oct 30, 2024 desde Cape Canaveral Space Force Station

Loading…

Próximos Pases (próximas 24 horas)

TLE

ActualizadoSource: CelesTrak SupGP

Época: Sep 15, 2026, 03:36 UTC

1 61707C 24196A   26258.15048611  .00012192  00000+0  36017-3 0  2584
2 61707  53.1573 298.4168 0001191  92.9248 309.7923 15.34388402    13

Sigue STARLINK-32376 en tiempo real con AllMySat

Download on the App Store